Starlink 2609

operational
NORAD ID: 48373 Int'l Des: 2021-038 Owner: SPXS Country: US Constellation: starlink
LEOCIRCULARSTARLINK_TYPE

Über Starlink 2609

Beschreibung wird geladen...

Live-Position

3D-Globus wird geladen...

Nächste Überflüge

Höhenverlauf

Altitude vs Time

uPlot chart will show altitude changes over time

Zweizeiliger Elementsatz

1 48373U 21038W 25296.28346537 .00000685 00000-0 64879-4 0 9998
2 48373 53.0539 248.4555 0001388 88.7761 271.3387 15.06390352246458
Epoch: 23. Okt. 2025 • Age: 36 hours

Aktueller Status

Höhe 564.4 km
Geschwindigkeit 7.58 km/s
Subsatellitenpunkt -47.76°S, 159.8°E
Startdatum 4. Mai 2021
Alter 4.4 years
Typ internet

Technische Details

Klassifizierung Payload
Masse 260.00 kg
Trockenmasse 248.00 kg
Gesamtmasse 260.00 kg
Länge 0.20 m
Durchmesser 2.80 m
Spannweite 9.00 m
Form Box + pan
Hersteller SPXS
Bus-Typ Starlink
Phasenstatus In Orbit
Besitzer/Staat SPXS/US

Große Konstellationen

Loading constellations...